Location: Cheching
(60.0667°N, 164.2167°W)
Time: 00:16:31
(UTC+00:00)

XW-2F - Visible Passes

Search period start: 24 January 2021 00:00
Search period end: 03 February 2021 00:00
Orbit: 501 x 519 km, 97.5° (Epoch: 23 January)

Date Brightness Start Highest point End Pass type
(mag) Time Alt. Az. Time Alt. Az. Time Alt. Az.
24 Jan ? 03:40:44 10° SSE 03:44:28 76° ENE 03:48:15 10° NNW visible
24 Jan ? 05:16:16 10° SW 05:18:53 18° W 05:21:32 10° NW visible
24 Jan ? 16:35:53 10° NNE 16:39:14 28° E 16:42:34 10° SSE visible
24 Jan ? 18:09:42 10° N 18:13:22 46° WNW 18:17:01 10° SW visible
25 Jan ? 04:59:07 10° SSW 05:02:13 24° W 05:05:20 10° NW visible
25 Jan ? 16:19:37 10° NE 16:22:35 21° E 16:25:32 10° SE visible
25 Jan ? 17:53:07 10° NNE 17:56:54 63° WNW 18:00:39 10° SSW visible
26 Jan ? 04:42:10 10° SSW 04:45:34 32° W 04:49:01 10° NNW visible
26 Jan ? 16:03:29 10° NE 16:05:53 16° E 16:08:17 10° SE visible
26 Jan ? 17:36:34 10° NNE 17:40:24 87° WNW 17:44:12 10° SSW visible
27 Jan ? 04:25:21 10° S 04:28:58 44° W 04:32:37 10° NNW visible
27 Jan ? 15:47:43 10° ENE 15:49:10 12° E 15:50:36 10° ESE visible
27 Jan ? 17:20:03 10° NNE 17:23:52 68° ESE 17:27:39 10° S visible
28 Jan ? 04:08:39 10° S 04:12:23 62° WSW 04:16:10 10° NNW visible
28 Jan ? 05:46:11 10° W 05:47:09 11° W 05:48:07 10° WNW visible
28 Jan ? 17:03:35 10° NNE 17:07:17 48° E 17:10:59 10° S visible
29 Jan ? 03:52:04 10° SSE 03:55:50 87° WSW 03:59:40 10° NNW visible
29 Jan ? 05:28:14 10° WSW 05:30:24 15° W 05:32:36 10° NW visible
29 Jan ? 16:47:09 10° NNE 16:50:41 35° E 16:54:12 10° SSE visible
29 Jan ? 18:21:09 10° N 18:24:41 37° WNW 18:28:13 10° SW visible
30 Jan ? 05:10:53 10° SW 05:13:41 20° W 05:16:31 10° NW visible
30 Jan ? 16:30:48 10° NE 16:34:03 26° E 16:37:16 10° SSE visible
30 Jan ? 18:04:32 10° N 18:08:14 51° WNW 18:11:55 10° SW visible
31 Jan ? 04:53:47 10° SSW 04:57:01 26° W 05:00:16 10° NW visible
31 Jan ? 16:14:33 10° NE 16:17:22 19° E 16:20:10 10° SE visible
31 Jan ? 17:47:56 10° NNE 17:51:45 70° WNW 17:55:31 10° SSW visible
01 Feb ? 04:36:52 10° SSW 04:40:22 36° W 04:43:55 10° NNW visible
01 Feb ? 15:58:29 10° NE 16:00:38 14° E 16:02:48 10° ESE visible
01 Feb ? 17:31:23 10° NNE 17:35:13 85° ESE 17:39:02 10° SSW visible
02 Feb ? 04:20:05 10° S 04:23:46 49° W 04:27:29 10° NNW visible
02 Feb ? 15:43:01 10° ENE 15:43:53 11° E 15:44:46 10° E visible
02 Feb ? 17:14:52 10° NNE 17:18:39 61° ESE 17:22:25 10° S visible
